Home   Weather   Kirkland Lake   Past weeks

Flag for Canada Past Weather in Kirkland Lake, Ontario, Canada — Yesterday and Last 2 Weeks

Now
19 °F

More clouds than sun.


Feels Like: 10 °F
Forecast: 23 / 30 °F
Wind: 7 mph from South

Location: Earlton

Current Time: Jan 16, 2017 at 10:11:38 am

Latest Report: Jan 16, 2017 at 9:00 am


Visibility: 9 mi

Pressure: 30.11 "Hg

Humidity: 86%

Dew Point: 16 °F

Location of Kirkland LakeLocation

Past Weather in Kirkland Lake — Graph

°F

Kirkland Lake Temperature Yesterday

Maximum temperature yesterday: 23 °F (at 10:09 pm)
Minimum temperature yesterday: -4 °F (at 8:00 am)
Average temperature yesterday: 11 °F

High & Low Weather Summary for the Past Weeks

 TemperatureHumidityPressure
High36 °F (Jan 11, 1:06 am)100% (Jan 3, 7:06 am)30.83 "Hg (Jan 3, 7:06 am)
Low-18 °F (Jan 7, 12:00 am)50% (Jan 13, 4:00 pm)29.05 "Hg (Jan 11, 12:44 am)
Average10 °F82%30.03 "Hg
* Reported Jan 1 8:00 am — Jan 16 8:00 am, Kirkland Lake, Weather by CustomWeather, © 2017

Note: Actual official high and low records may vary slightly from our data, if they occured in-between our weather recording intervals... More about our weather records

Advertising

Kirkland Lake Weather History for the Previous 24 Hours

Scroll right to see more
 ConditionsComfort  
Time TempWeatherWind HumidityBarometerVisibility
8:00 am
Mon, Jan 16
18 °FOvercast.6 mph93%30.09 "Hg9 mi
7:00 am18 °FPassing clouds.6 mph93%30.07 "Hg9 mi
6:00 am18 °FPartly cloudy.7 mph93%30.06 "Hg9 mi
5:00 am19 °FClear.7 mph86%30.07 "Hg9 mi
4:00 am21 °FClear.8 mph86%30.06 "Hg9 mi
3:00 am23 °FClear.13 mph80%30.08 "Hg9 mi
2:00 am25 °FOvercast.13 mph80%30.09 "Hg9 mi
1:00 am25 °FOvercast.15 mph80%30.10 "Hg9 mi
12:00 am25 °FOvercast.15 mph80%30.11 "Hg9 mi
11:21 pm
Sun, Jan 15
23 °FOvercast.16 mph86%30.12 "Hg9 mi
11:00 pm23 °FOvercast.20 mph80%30.11 "Hg9 mi
10:09 pm23 °FLight snow. Overcast.22 mph80%30.15 "Hg9 mi
9:32 pm21 °FLight snow. Overcast.20 mph86%30.17 "Hg9 mi
9:13 pm21 °FOvercast.18 mph80%30.18 "Hg9 mi
9:03 pm21 °FLight snow. Overcast.20 mph80%30.19 "Hg9 mi
8:24 pm19 °FOvercast.18 mph86%30.21 "Hg9 mi
8:10 pm19 °FLight snow. Overcast.17 mph86%30.22 "Hg9 mi
7:00 pm18 °FMostly cloudy.16 mph86%30.23 "Hg9 mi
6:24 pm18 °FPartly cloudy.14 mph79%30.23 "Hg9 mi
6:00 pm18 °FOvercast.14 mph86%30.24 "Hg9 mi
5:00 pm19 °FOvercast.12 mph79%30.26 "Hg9 mi
4:00 pm18 °FPartly sunny.10 mph79%30.28 "Hg9 mi
3:18 pm19 °FPartly sunny.14 mph73%30.29 "Hg9 mi
3:00 pm14 °FOvercast.12 mph79%30.29 "Hg9 mi
2:16 pm10 °FMostly cloudy.10 mph79%30.30 "Hg9 mi
2:00 pm10 °FOvercast.10 mph72%30.30 "Hg9 mi
1:22 pm9 °FBroken clouds.12 mph72%30.32 "Hg9 mi
1:00 pm7 °FPartly sunny.10 mph78%30.33 "Hg9 mi
12:00 pm5 °FBroken clouds.10 mph78%30.37 "Hg9 mi
11:00 am0 °FSunny.8 mph84%30.40 "Hg9 mi
10:00 am-4 °FOvercast.5 mph92%30.42 "Hg9 mi
Weather by CustomWeather, © 2017

See weather overviewHow to use our weather pages